Back to catalog

STARLINK-2472

AliveCommunicationsVLEO
NORAD 48130·PAYLOAD·🇺🇸 United States

Launched Apr 7, 2021 from Cape Canaveral Space Force Station

Loading…

Next Passes (next 24 hours)

TLE

FreshSource: CelesTrak SupGP

Epoch: Sep 14, 2026, 12:57 UTC

1 48130C 21027AQ  26257.54006944 -.00023725  00000+0 -76290-3 0  2576
2 48130  53.1605   9.3191 0001113  91.6785 338.2711 15.31714880    17

Track STARLINK-2472 in real time with AllMySat

Download on the App Store